Location: Burgberg
(50.1428°N, 11.0671°E)
Time: 17:01:24
(UTC+00:00)

Cosmos 2181 Rocket - Pass Details

Date: 26 January 2020
Orbit: 953 x 1014 km, 82.9° (Epoch: 18 February)

Event Time Altitude Azimuth Distance (km) Brightness Sun altitude
Rises 04:43:00 0° 192° (SSW) 3,651 6.9 -21.5°
Reaches altitude 10° 04:45:29 10° 194° (SSW) 2,717 6.2 -21.1°
Maximum altitude 04:51:43 78° 280° (W) 1,015 3.9 -20.1°
Drops below altitude 10° 04:58:07 10° 8° (N) 2,778 6.4 -19.1°
Sets 05:00:41 0° 10° (N) 3,740 7.1 -18.7°
